Poteau, OK

1:07 PM CST on March 01, 2017 (GMT -0600)
Kerr

Weather History for KRKR - January, 2012

Change the Weather History Date:

Sunday, January 1, 2012

  Actual Average (KFSM) Record (KFSM)
Temperature  
Mean Temperature 48 °F -  
Max Temperature 55 °F 49 °F 76 °F (1910)
Min Temperature 42 °F 29 °F 2 °F (1928)
Degree Days  
Heating Degree Days 16    
Moisture  
Dew Point 29 °F    
Average Humidity 48    
Maximum Humidity 71    
Minimum Humidity 29    
Precipitation  
Precipitation 0.00 in - - ()
Sea Level Pressure  
Sea Level Pressure 30.41 in    
Wind  
Wind Speed 11 mph (NW)    
Max Wind Speed 20 mph    
Max Gust Speed 31 mph    
Visibility 10 miles    
Events      
Averages and records for this station are not official NWS values.
T = Trace of Precipitation, MM = Missing Value Source: NWS Daily Summary

Daily Weather History Graph

Daily Weather History Graph

Search for Another Location

Airport or City:

Trip Planner

Search our weather history database for the weather conditions in past years. The results will help you decide how hot, cold, wet, or windy it might be!

Date:

Astronomy

Jan. 01, 2012 Rise Set
Actual Time 7:26 AM CST 5:17 PM CST
Civil Twilight 6:58 AM CST 5:45 PM CST
Nautical Twilight 6:26 AM CST 6:17 PM CST
Astronomical Twilight 5:56 AM CST 6:47 PM CST
Moon 11:58 AM CST 12:31 AM CST
Length of Visible Light 10h 47m
Length of Day
9h 50m
First Quarter, 55% of the Moon is Illuminated
Jan 1
First Quarter
Jan 9
Full
Jan 16
Last Quarter
Jan 23
New
Jan 30
First Quarter

Hourly Weather History & Observations

Time (CST) Temp. Windchill Dew Point Humidity Pressure Visibility Wind Dir Wind Speed Gust Speed Precip Events Conditions
12:15 AM 55.4 °F - 32.0 °F 41% 30.08 in 10.0 mi WNW 15.0 mph 23.0 mph N/A   Clear
12:35 AM 51.8 °F - 32.0 °F 47% 30.10 in 10.0 mi West 12.7 mph 28.8 mph N/A   Clear
12:55 AM 51.8 °F - 33.8 °F 50% 30.13 in 10.0 mi WNW 19.6 mph 31.1 mph N/A   Clear
1:15 AM 50.0 °F - 35.6 °F 58% 30.14 in 10.0 mi West 19.6 mph 29.9 mph N/A   Clear
1:35 AM 50.0 °F - 37.4 °F 62% 30.16 in 10.0 mi WNW 11.5 mph 24.2 mph N/A   Scattered Clouds
2:15 AM 46.4 °F 42.4 °F 35.6 °F 66% 30.19 in 10.0 mi West 8.1 mph - N/A   Scattered Clouds
2:35 AM 46.4 °F 43.5 °F 35.6 °F 66% 30.21 in 10.0 mi SW 5.8 mph - N/A   Scattered Clouds
2:55 AM 44.6 °F - 35.6 °F 71% 30.23 in 10.0 mi Calm Calm - N/A   Unknown
3:15 AM 46.4 °F 42.9 °F 35.6 °F 66% 30.24 in 10.0 mi WNW 6.9 mph - N/A   Unknown
3:35 AM 46.4 °F 41.9 °F 35.6 °F 66% 30.26 in 10.0 mi WNW 9.2 mph 17.3 mph N/A   Unknown
3:55 AM 46.4 °F 41.5 °F 33.8 °F 62% 30.27 in 10.0 mi NW 10.4 mph 21.9 mph N/A   Clear
4:15 AM 46.4 °F 40.4 °F 33.8 °F 62% 30.29 in 10.0 mi NW 13.8 mph 25.3 mph N/A   Clear
4:35 AM 46.4 °F 40.7 °F 33.8 °F 62% 30.30 in 10.0 mi WNW 12.7 mph 19.6 mph N/A   Clear
4:55 AM 44.6 °F 39.7 °F 33.8 °F 66% 30.31 in 10.0 mi West 9.2 mph - N/A   Clear
5:15 AM 44.6 °F 39.2 °F 33.8 °F 66% 30.32 in 10.0 mi West 10.4 mph - N/A   Clear
5:35 AM 44.6 °F 38.4 °F 32.0 °F 61% 30.33 in 10.0 mi West 12.7 mph 17.3 mph N/A   Clear
5:55 AM 42.8 °F 39.3 °F 32.0 °F 66% 30.34 in 10.0 mi West 5.8 mph - N/A   Clear
6:15 AM 42.8 °F 37.5 °F 32.0 °F 66% 30.35 in 10.0 mi West 9.2 mph - N/A   Clear
6:35 AM 42.8 °F 37.5 °F 32.0 °F 66% 30.36 in 10.0 mi West 9.2 mph - N/A   Clear
6:55 AM 42.8 °F 37.0 °F 32.0 °F 66% 30.38 in 10.0 mi West 10.4 mph - N/A   Clear
7:15 AM 42.8 °F 37.5 °F 32.0 °F 66% 30.40 in 10.0 mi West 9.2 mph - N/A   Clear
7:35 AM 42.8 °F 38.0 °F 32.0 °F 66% 30.41 in 10.0 mi WNW 8.1 mph - N/A   Clear
7:55 AM 42.8 °F 37.0 °F 32.0 °F 66% 30.41 in 10.0 mi WNW 10.4 mph 16.1 mph N/A   Clear
8:15 AM 42.8 °F 36.6 °F 32.0 °F 66% 30.42 in 10.0 mi WNW 11.5 mph 16.1 mph N/A   Clear
8:35 AM 44.6 °F 38.1 °F 30.2 °F 57% 30.42 in 10.0 mi NNW 13.8 mph 23.0 mph N/A   Clear
8:55 AM 44.6 °F 38.4 °F 30.2 °F 57% 30.43 in 10.0 mi NNW 12.7 mph 17.3 mph N/A   Clear
9:15 AM 44.6 °F 38.1 °F 30.2 °F 57% 30.45 in 10.0 mi NNW 13.8 mph 21.9 mph N/A   Clear
9:35 AM 44.6 °F 38.8 °F 30.2 °F 57% 30.46 in 10.0 mi NW 11.5 mph 19.6 mph N/A   Clear
9:55 AM 44.6 °F 39.2 °F 30.2 °F 57% 30.46 in 10.0 mi NNW 10.4 mph - N/A   Clear
10:15 AM 46.4 °F 41.1 °F 30.2 °F 53% 30.48 in 10.0 mi NNW 11.5 mph 18.4 mph N/A   Clear
10:35 AM 48.2 °F - 30.2 °F 50% 30.48 in 10.0 mi NNW 8.1 mph - N/A   Clear
10:55 AM 50.0 °F - 32.0 °F 50% 30.49 in 10.0 mi NNW 12.7 mph 17.3 mph N/A   Clear
11:15 AM 50.0 °F - 30.2 °F 47% 30.48 in 10.0 mi NNW 15.0 mph - N/A   Clear
11:55 AM 50.0 °F - 28.4 °F 43% 30.48 in 10.0 mi NNW 12.7 mph 19.6 mph N/A   Clear
12:15 PM 50.0 °F - 26.6 °F 40% 30.48 in 10.0 mi NNW 9.2 mph - N/A   Clear
12:35 PM 51.8 °F - 28.4 °F 41% 30.48 in 10.0 mi North 10.4 mph - N/A   Clear
12:55 PM 51.8 °F - 26.6 °F 38% 30.48 in 10.0 mi NW 11.5 mph 16.1 mph N/A   Clear
1:15 PM 51.8 °F - 26.6 °F 38% 30.48 in 10.0 mi NNW 8.1 mph - N/A   Clear
1:35 PM 53.6 °F - 24.8 °F 33% 30.48 in 10.0 mi NNW 5.8 mph - N/A   Clear
1:55 PM 53.6 °F - 26.6 °F 35% 30.48 in 10.0 mi North 8.1 mph - N/A   Clear
2:15 PM 55.4 °F - 26.6 °F 33% 30.48 in 10.0 mi NNW 5.8 mph - N/A   Clear
2:35 PM 55.4 °F - 24.8 °F 31% 30.47 in 10.0 mi North 8.1 mph - N/A   Clear
2:55 PM 55.4 °F - 24.8 °F 31% 30.48 in 10.0 mi North 8.1 mph - N/A   Clear
3:15 PM 55.4 °F - 23.0 °F 29% 30.49 in 10.0 mi NNW 12.7 mph 16.1 mph N/A   Clear
3:35 PM 55.4 °F - 23.0 °F 29% 30.49 in 10.0 mi NW 9.2 mph 17.3 mph N/A   Clear
3:55 PM 55.4 °F - 23.0 °F 29% 30.49 in 10.0 mi NW 10.4 mph - N/A   Clear
4:15 PM 53.6 °F - 23.0 °F 30% 30.51 in 10.0 mi NW 6.9 mph - N/A   Clear
4:35 PM 51.8 °F - 23.0 °F 33% 30.51 in 10.0 mi NW 8.1 mph - N/A   Clear
4:55 PM 51.8 °F - 23.0 °F 33% 30.52 in 10.0 mi NW 5.8 mph - N/A   Clear
5:15 PM 50.0 °F - 21.2 °F 32% 30.52 in 10.0 mi WNW 4.6 mph - N/A   Clear
5:35 PM 50.0 °F - 23.0 °F 35% 30.52 in 10.0 mi West 3.5 mph - N/A   Clear
5:55 PM 50.0 °F - 24.8 °F 37% 30.53 in 10.0 mi West 4.6 mph - N/A   Clear
6:15 PM 48.2 °F - 23.0 °F 37% 30.53 in 10.0 mi NW 6.9 mph - N/A   Clear
6:35 PM 50.0 °F - 21.2 °F 32% 30.53 in 10.0 mi WNW 6.9 mph - N/A   Clear
6:55 PM 50.0 °F - 21.2 °F 32% 30.54 in 10.0 mi NW 5.8 mph - N/A   Clear
7:15 PM 48.2 °F - 19.4 °F 32% 30.54 in 10.0 mi NW 4.6 mph - N/A   Clear
7:35 PM 46.4 °F - 21.2 °F 37% 30.53 in 10.0 mi Calm Calm - N/A   Clear
7:55 PM 46.4 °F - 21.2 °F 37% 30.54 in 10.0 mi Calm Calm - N/A   Clear
8:15 PM 46.4 °F - 19.4 °F 34% 30.54 in 10.0 mi Calm Calm - N/A   Clear
8:35 PM 46.4 °F 44.3 °F 19.4 °F 34% 30.54 in 10.0 mi NW 4.6 mph - N/A   Clear
8:55 PM 46.4 °F 42.4 °F 21.2 °F 37% 30.54 in 10.0 mi NW 8.1 mph - N/A   Clear
9:15 PM 50.0 °F - 19.4 °F 30% 30.55 in 10.0 mi NW 11.5 mph 17.3 mph N/A   Clear
9:35 PM 48.2 °F - 19.4 °F 32% 30.55 in 10.0 mi NW 11.5 mph 16.1 mph N/A   Clear
9:55 PM 46.4 °F 41.5 °F 21.2 °F 37% 30.56 in 10.0 mi NW 10.4 mph 18.4 mph N/A   Clear
10:15 PM 46.4 °F 41.9 °F 21.2 °F 37% 30.56 in 10.0 mi NW 9.2 mph - N/A   Clear
10:35 PM 44.6 °F 40.2 °F 21.2 °F 39% 30.57 in 10.0 mi NNW 8.1 mph - N/A   Clear
10:55 PM 44.6 °F 40.7 °F 19.4 °F 37% 30.57 in 10.0 mi NW 6.9 mph - N/A   Clear
11:35 PM 42.8 °F 38.6 °F 21.2 °F 42% 30.57 in 10.0 mi NNW 6.9 mph - N/A   Clear